TimeEDT,TemperatureF,Dew PointF,Humidity,Sea Level PressureIn,VisibilityMPH,Wind Direction,Wind SpeedMPH,Gust SpeedMPH,PrecipitationIn,Events,Conditions,WindDirDegrees,DateUTC
12:15 AM,44.8,25.7,47,29.81,10.0,WSW,5.8,-,N/A,,Clear,240,2012-10-31 04:15:00
12:35 AM,44.8,26.2,48,29.81,10.0,WSW,6.9,-,N/A,,Clear,240,2012-10-31 04:35:00
12:55 AM,44.8,27.0,50,29.81,10.0,WSW,5.8,-,N/A,,Clear,250,2012-10-31 04:55:00
1:35 AM,45.3,28.0,51,29.81,10.0,WSW,9.2,-,N/A,,Clear,250,2012-10-31 05:35:00
1:55 AM,45.0,28.4,52,29.81,10.0,WSW,8.1,-,N/A,,Clear,250,2012-10-31 05:55:00
2:15 AM,45.1,28.4,52,29.81,10.0,WSW,9.2,-,N/A,,Clear,250,2012-10-31 06:15:00
2:35 AM,44.6,28.9,54,29.81,10.0,WSW,6.9,-,N/A,,Clear,250,2012-10-31 06:35:00
2:55 AM,44.2,28.9,55,29.82,10.0,WSW,5.8,-,N/A,,Clear,240,2012-10-31 06:55:00
3:15 AM,43.3,29.1,57,29.82,10.0,WSW,5.8,-,N/A,,Clear,240,2012-10-31 07:15:00
3:35 AM,42.8,29.1,58,29.82,10.0,WSW,4.6,-,N/A,,Clear,240,2012-10-31 07:35:00
3:55 AM,42.8,29.3,59,29.82,10.0,WSW,8.1,-,N/A,,Clear,250,2012-10-31 07:55:00
4:15 AM,42.8,29.3,59,29.82,10.0,WSW,6.9,-,N/A,,Clear,250,2012-10-31 08:15:00
4:35 AM,43.0,29.3,59,29.83,10.0,WSW,6.9,-,N/A,,Clear,240,2012-10-31 08:35:00
4:55 AM,43.7,29.3,57,29.83,10.0,WSW,5.8,-,N/A,,Clear,240,2012-10-31 08:55:00
5:15 AM,43.5,29.7,58,29.83,10.0,WSW,6.9,-,N/A,,Clear,240,2012-10-31 09:15:00
5:35 AM,43.2,30.0,60,29.83,10.0,WSW,8.1,-,N/A,,Clear,250,2012-10-31 09:35:00
5:55 AM,43.2,30.2,60,29.84,10.0,West,8.1,18.4,N/A,,Clear,260,2012-10-31 09:55:00
6:15 AM,43.3,30.2,60,29.84,10.0,West,6.9,-,N/A,,Clear,270,2012-10-31 10:15:00
6:35 AM,43.2,30.2,60,29.84,10.0,West,9.2,-,N/A,,Clear,260,2012-10-31 10:35:00
6:55 AM,43.3,30.2,60,29.85,10.0,West,8.1,-,N/A,,Clear,260,2012-10-31 10:55:00
7:15 AM,42.8,30.0,61,29.85,10.0,West,6.9,-,N/A,,Clear,270,2012-10-31 11:15:00
7:35 AM,43.3,29.7,59,29.85,10.0,West,6.9,-,N/A,,Clear,260,2012-10-31 11:35:00
7:55 AM,43.0,29.5,59,29.86,10.0,West,8.1,-,N/A,,Clear,260,2012-10-31 11:55:00
8:15 AM,43.2,29.5,59,29.86,10.0,West,8.1,-,N/A,,Clear,260,2012-10-31 12:15:00
8:35 AM,44.4,29.5,56,29.86,10.0,West,10.4,-,N/A,,Clear,260,2012-10-31 12:35:00
8:55 AM,45.9,29.3,52,29.87,10.0,West,11.5,16.1,N/A,,Clear,270,2012-10-31 12:55:00
9:15 AM,46.9,29.1,50,29.88,10.0,West,10.4,20.7,N/A,,Clear,280,2012-10-31 13:15:00
9:35 AM,48.2,29.1,48,29.88,10.0,West,16.1,21.9,N/A,,Clear,280,2012-10-31 13:35:00
9:55 AM,49.1,28.4,45,29.87,10.0,West,10.4,20.7,N/A,,Clear,280,2012-10-31 13:55:00
10:15 AM,50.4,28.4,43,29.87,10.0,West,12.7,24.2,N/A,,Clear,280,2012-10-31 14:15:00
10:35 AM,52.0,28.0,40,29.87,10.0,West,13.8,19.6,N/A,,Clear,270,2012-10-31 14:35:00
10:55 AM,52.3,27.5,38,29.88,10.0,West,19.6,26.5,N/A,,Clear,280,2012-10-31 14:55:00
11:15 AM,53.8,28.0,37,29.89,10.0,West,12.7,27.6,N/A,,Clear,260,2012-10-31 15:15:00
11:35 AM,54.0,27.7,36,29.88,10.0,West,10.4,21.9,N/A,,Clear,280,2012-10-31 15:35:00
11:55 AM,55.8,27.0,33,29.89,10.0,West,17.3,25.3,N/A,,Clear,270,2012-10-31 15:55:00
12:15 PM,56.8,26.4,31,29.88,10.0,WNW,16.1,24.2,N/A,,Clear,290,2012-10-31 16:15:00
12:35 PM,57.7,25.7,29,29.88,10.0,WNW,17.3,25.3,N/A,,Clear,290,2012-10-31 16:35:00
12:55 PM,59.0,24.8,27,29.87,10.0,West,12.7,25.3,N/A,,Clear,280,2012-10-31 16:55:00
1:15 PM,60.1,23.7,25,29.87,10.0,West,16.1,24.2,N/A,,Clear,270,2012-10-31 17:15:00
1:35 PM,60.8,24.8,25,29.86,10.0,WNW,15.0,24.2,N/A,,Clear,290,2012-10-31 17:35:00
1:55 PM,61.7,25.0,25,29.86,10.0,West,15.0,23.0,N/A,,Clear,280,2012-10-31 17:55:00
2:15 PM,61.3,24.4,24,29.85,10.0,WNW,17.3,28.8,N/A,,Clear,300,2012-10-31 18:15:00
2:35 PM,63.1,25.7,24,29.84,10.0,WSW,17.3,24.2,N/A,,Clear,250,2012-10-31 18:35:00
2:55 PM,63.3,24.6,23,29.84,10.0,West,15.0,24.2,N/A,,Clear,280,2012-10-31 18:55:00
3:15 PM,63.5,24.6,23,29.83,10.0,West,10.4,21.9,N/A,,Clear,260,2012-10-31 19:15:00
3:35 PM,64.0,24.4,22,29.84,10.0,West,10.4,24.2,N/A,,Clear,260,2012-10-31 19:35:00
3:55 PM,64.4,24.6,22,29.84,10.0,WSW,15.0,27.6,N/A,,Clear,250,2012-10-31 19:55:00
4:15 PM,63.9,24.4,22,29.84,10.0,West,11.5,24.2,N/A,,Clear,270,2012-10-31 20:15:00
4:35 PM,63.5,24.6,23,29.84,10.0,West,15.0,19.6,N/A,,Clear,280,2012-10-31 20:35:00
4:55 PM,62.8,25.7,24,29.83,10.0,West,13.8,19.6,N/A,,Clear,270,2012-10-31 20:55:00
5:15 PM,63.1,26.8,25,29.84,10.0,West,10.4,18.4,N/A,,Clear,270,2012-10-31 21:15:00
5:35 PM,62.6,25.3,24,29.84,10.0,West,13.8,18.4,N/A,,Clear,270,2012-10-31 21:35:00
5:55 PM,62.1,25.3,25,29.84,10.0,West,9.2,17.3,N/A,,Clear,270,2012-10-31 21:55:00
6:15 PM,61.9,24.6,24,29.84,10.0,WSW,9.2,19.6,N/A,,Clear,250,2012-10-31 22:15:00
6:35 PM,60.1,24.6,26,29.85,10.0,WSW,5.8,16.1,N/A,,Clear,250,2012-10-31 22:35:00
6:55 PM,58.3,24.8,28,29.85,10.0,West,6.9,-,N/A,,Clear,260,2012-10-31 22:55:00
7:15 PM,58.3,24.8,28,29.86,10.0,West,8.1,-,N/A,,Clear,260,2012-10-31 23:15:00
7:35 PM,55.8,25.2,31,29.86,10.0,West,5.8,-,N/A,,Clear,260,2012-10-31 23:35:00
7:55 PM,53.4,25.5,34,29.87,10.0,West,4.6,-,N/A,,Clear,260,2012-10-31 23:55:00
8:15 PM,51.4,25.5,37,29.87,10.0,West,3.5,-,N/A,,Clear,270,2012-11-01 00:15:00
8:35 PM,48.0,27.0,44,29.88,10.0,West,4.6,-,N/A,,Clear,260,2012-11-01 00:35:00
8:55 PM,47.1,27.5,47,29.88,10.0,West,4.6,-,N/A,,Clear,260,2012-11-01 00:55:00
9:15 PM,47.3,26.4,44,29.88,10.0,West,5.8,-,N/A,,Clear,260,2012-11-01 01:15:00
9:35 PM,47.7,27.5,46,29.88,10.0,West,4.6,-,N/A,,Clear,260,2012-11-01 01:35:00
9:55 PM,46.0,27.1,48,29.89,10.0,WSW,3.5,-,N/A,,Clear,250,2012-11-01 01:55:00
10:15 PM,45.1,28.4,52,29.89,10.0,West,4.6,-,N/A,,Clear,260,2012-11-01 02:15:00
10:35 PM,43.3,28.6,56,29.90,7.0,West,3.5,-,N/A,,Clear,270,2012-11-01 02:35:00
10:55 PM,41.9,29.5,61,29.90,10.0,West,3.5,-,N/A,,Clear,270,2012-11-01 02:55:00
11:15 PM,44.4,28.9,55,29.90,10.0,West,3.5,-,N/A,,Clear,270,2012-11-01 03:15:00
11:35 PM,42.1,29.8,62,29.90,10.0,WSW,4.6,-,N/A,,Clear,250,2012-11-01 03:35:00
11:55 PM,41.2,30.7,66,29.90,10.0,West,3.5,-,N/A,,Clear,260,2012-11-01 03:55:00